User: anonymous   Login
Location: Ciserano
(45.5833°N, 9.6000°E)
Time: 16:31:33
(UTC+00:00)
Language:

Gbstr 26 Del rocket - Orbit

View from above orbital plane
View from above orbital plane
View from above satellite
View from above satellite

Ground track
Ground track

The orbit data is extracted from the following two-line orbital elements,

1 25876U 99041E   21063.17189922  .00000303  00000-0  92698-4 0  9996
2 25876  51.7658   5.0017 0531736  21.6321 340.6187 14.04526803105159
Epoch (UTC): 04 March 2021 04:07:32
Eccentricity: 0.0531736
inclination: 51.7658°
perigee height: 492 km
apogee height: 1264 km
right ascension of ascending node: 5.0017°
argument of perigee: 21.6321°
revolutions per day: 14.04526803
mean anomaly at epoch: 340.6187°
orbit number at epoch: 10515

The dashed part of the orbit path shows where the satellite is in the earth's shadow,  

DLR